User: anonymous   Login
Location: Newark
(51.1667°N, 4.4833°E)
Time: 11:10:51
(UTC+00:00)
Language:

NOAA 19 - Orbit

View from above orbital plane
View from above orbital plane
View from above satellite
View from above satellite

Ground track
Ground track

The orbit data is extracted from the following two-line orbital elements,

1 33591U 09005A   19349.91063198 +.00000020 +00000-0 +36172-4 0  9993
2 33591 099.1912 345.4993 0013213 231.1977 128.8014 14.12387435559080
Epoch (UTC): 15 December 2019 21:51:18
Eccentricity: 0.0013213
inclination: 99.1912°
perigee height: 841 km
apogee height: 861 km
right ascension of ascending node: 345.4993°
argument of perigee: 231.1977°
revolutions per day: 14.12387435
mean anomaly at epoch: 128.8014°
orbit number at epoch: 55908

The dashed part of the orbit path shows where the satellite is in the earth's shadow,  

DLR